[[{"header":{"parameterUnit":"m.s-1","parameterCategory":1,"la1":30.2991,"la2":30.254,"lo1":-89.0895,"lo2":-89.0444,"dy":0.0017,"dx":0.0017,"nx":28,"ny":28,"refTime":"2024-06-23T09:00:00:Z","depth":0,"parameterNumber":2,"parameterNumberName":"U-component_of_WINDS"},"data":[0,0,0,0,0,0,0,0,0,0,0,0,0,0,0,0,0,0,0,0,0,0,0,0,0,0,0,0,0,0,0,0,0,0,0,0,0,0,0,0,0,0,0,0,0,0,0,0,0,0,0,0,0,0,0,0,0,0,1.2415,1.2416,0,1.2502,1.2503,1.2504,1.2527,1.2526,1.2526,1.2525,1.2615,1.2617,1.262,0,0,0,0,0,0,0,0,0,0,0,0,0,1.2266,1.2269,1.2414,1.2416,1.2417,1.2502,1.2503,1.2504,1.2527,1.2526,1.2526,1.2525,1.2614,1.2617,1.2621,0,0,0,0,0,0,0,0,0,0,0,0,0,1.234,1.2269,1.2414,1.2438,1.2441,1.2502,1.2503,1.2505,1.2527,1.2526,1.2525,1.2525,1.2613,1.2617,1.2621,1.2664,0,0,1.2634,1.2636,0,0,0,0,0,0,0,0,1.2335,1.2345,1.2434,1.2437,1.244,1.2503,1.2484,1.2558,1.2527,1.2495,1.2525,1.2524,1.2578,1.2585,1.2603,1.2668,1.2672,1.2635,1.2637,1.2639,1.264,0,0,0,0,0,0,0,1.233,1.2341,1.2449,1.2435,1.2439,1.2444,1.2454,1.2498,1.254,1.2497,1.2499,1.2509,1.258,1.2599,1.2606,1.2673,1.2635,1.2638,1.2641,1.2643,1.2776,1.2777,0,0,0,0,0,0,1.2321,1.2337,1.2446,1.2452,1.2385,1.2448,1.2458,1.2484,1.2539,1.2547,1.251,1.251,1.2592,1.2601,1.2609,1.2662,1.2639,1.2643,1.2646,1.2775,1.2777,1.2778,0,0,0,0,0,0,1.2318,1.2331,1.2443,1.2395,1.241,1.2451,1.2479,1.2486,1.2505,1.2549,1.2556,1.2522,1.2592,1.2603,1.265,1.2665,1.2645,1.2649,1.2774,1.2776,1.2777,1.2768,0,0,0,0,0,0,1.2314,1.2329,1.2346,1.2395,1.2412,1.2482,1.248,1.2488,1.2513,1.2514,1.2562,1.257,1.2592,1.2643,1.2654,1.2671,1.2652,1.2773,1.2775,1.2777,1.2767,1.2769,1.2771,0,0,0,0,0,1.2308,1.2341,1.2347,1.236,1.2434,1.2483,1.2493,1.2518,1.2514,1.2531,1.2559,1.2568,1.2662,1.2648,1.266,1.2678,1.2772,1.2774,1.2777,1.2767,1.2769,1.2771,0,0,0,0,0,0,1.2292,1.2347,1.2355,1.2404,1.2439,1.2487,1.2509,1.252,1.2557,1.2556,1.2586,1.2597,1.2642,1.2665,1.2648,1.2722,1.2717,1.2722,1.2705,1.2708,1.271,1.2702,1.2656,0,0,0,0,0,1.2295,1.233,1.2376,1.2415,1.2432,1.2468,1.249,1.2507,1.2544,1.2558,1.259,1.2625,1.2663,1.2687,1.2724,1.2771,1.2782,1.279,1.2792,1.2793,1.2796,1.2822,1.2826,1.2785,1.2785,1.2785,0,0,1.2299,1.2334,1.2355,1.2413,1.2442,1.2477,1.248,1.2518,1.2544,1.2564,1.261,1.2635,1.2676,1.2723,1.2745,1.2744,1.281,1.2796,1.2796,1.2799,1.2825,1.2828,1.2832,1.2786,1.2786,1.2786,0,0,1.2326,1.2357,1.2392,1.242,1.2464,1.2487,1.2496,1.2542,1.2559,1.2606,1.2621,1.2653,1.2717,1.2746,1.2769,1.2806,1.2816,1.2818,1.2826,1.2851,1.2854,1.2857,1.2869,1.2873,1.2821,1.2821,1.2821,0,1.2327,1.2381,1.2408,1.2445,1.247,1.249,1.2525,1.2552,1.2605,1.2621,1.2619,1.2699,1.2729,1.2782,1.2791,1.281,1.282,1.2812,1.2852,1.2855,1.2858,1.287,1.2875,1.2821,1.2821,1.2821,1.2821,0,1.2379,1.2417,1.244,1.2491,1.2518,1.2554,1.2586,1.2611,1.2625,1.2648,1.2695,1.2731,1.2775,1.279,1.2804,1.2845,1.2843,1.2846,1.2841,1.2861,1.2873,1.2878,1.2821,1.2821,1.2821,1.2821,0,0,1.2398,1.2463,1.2471,1.2494,1.2543,1.2572,1.2609,1.2652,1.2672,1.2709,1.2739,1.2793,1.2796,1.2822,1.284,1.2862,1.2887,1.2862,1.2863,1.2864,1.2934,1.293,1.2935,1.2894,1.2896,1.2896,1.293,0,1.243,1.2496,1.2521,1.2575,1.261,1.2629,1.2661,1.2694,1.2717,1.2749,1.2775,1.2812,1.2814,1.2829,1.2852,1.2879,1.2902,1.2878,1.2923,1.2924,1.2911,1.2942,1.2938,1.2968,1.2935,1.2936,1.2936,0,1.2476,1.2513,1.257,1.2614,1.2629,1.2658,1.2699,1.273,1.2768,1.2783,1.2812,1.2828,1.2867,1.286,1.2913,1.2896,1.2917,1.2933,1.2935,1.2939,1.293,1.2945,1.2978,1.2982,1.2944,1.2943,1.2943,0,1.2483,1.2546,1.2588,1.2607,1.266,1.2679,1.2702,1.274,1.2764,1.28,1.2816,1.2856,1.2878,1.2908,1.2935,1.2928,1.2985,1.2981,1.2998,1.2997,1.3008,1.3007,1.3044,1.3023,1.3023,1.3023,1.3023,0,1.2515,1.2549,1.2592,1.2617,1.2656,1.2684,1.2721,1.2746,1.2779,1.2809,1.2829,1.2857,1.2891,1.2923,1.2944,1.2984,1.2994,1.3007,1.3012,1.3005,1.3003,1.3018,1.3016,1.3024,1.3024,1.3024,1.3023,0,1.2529,1.2559,1.2605,1.2652,1.2664,1.269,1.273,1.2755,1.2779,1.2817,1.2828,1.2865,1.2905,1.2934,1.2985,1.2999,1.3042,1.3048,1.3029,1.3031,1.3046,1.3044,1.3092,1.31,1.3075,1.3075,1.3075,0,1.2547,1.2573,1.2622,1.2644,1.2667,1.2702,1.2726,1.2755,1.278,1.2825,1.2845,1.2886,1.2919,1.2981,1.3013,1.3051,1.3058,1.3072,1.3064,1.3055,1.3057,1.3054,1.3057,1.3073,1.3073,1.3073,1.3073,0,1.2576,1.2589,1.2624,1.2663,1.2692,1.2725,1.2758,1.2774,1.2809,1.2836,1.2876,1.2902,1.2954,1.2994,1.3036,1.3059,1.3072,1.3076,1.3081,1.3074,1.3061,1.3067,1.303,1.3074,1.3074,1.3074,1.3074,1.3074,1.2591,1.2615,1.2653,1.2691,1.2719,1.2749,1.2775,1.2802,1.2836,1.288,1.2895,1.2937,1.2974,1.3031,1.3055,1.3088,1.3088,1.3096,1.3099,1.31,1.3099,1.3057,1.3096,1.3096,1.3096,1.3096,1.3096,0,1.262,1.2645,1.268,1.2725,1.2755,1.2764,1.2801,1.2825,1.2861,1.2894,1.2927,1.2973,1.3011,1.3046,1.3086,1.3105,1.3112,1.3115,1.3113,1.3118,1.3097,1.3087,1.3108,1.3108,1.3108,1.3108,1.3108,1.3108,1.2638,1.2679,1.2697,1.2751,1.2777,1.2817,1.2837,1.2865,1.2892,1.2942,1.2974,1.2996,1.303,1.3072,1.3108,1.3117,1.313,1.3131,1.3142,1.3121,1.3119,1.3118,1.3109,1.3134,1.3134,1.316,1.316,1.3161]},{"header":{"parameterUnit":"m.s-1","parameterCategory":1,"la1":30.2991,"la2":30.254,"lo1":-89.0895,"lo2":-89.0444,"dy":0.0017,"dx":0.0017,"nx":28,"ny":28,"refTime":"2024-06-23T09:00:00:Z","depth":0,"parameterNumber":3,"parameterNumberName":"V-component_of_WINDS"},"data":[0,0,0,0,0,0,0,0,0,0,0,0,0,0,0,0,0,0,0,0,0,0,0,0,0,0,0,0,0,0,0,0,0,0,0,0,0,0,0,0,0,0,0,0,0,0,0,0,0,0,0,0,0,0,0,0,0,0,-0.2623,-0.2623,0,-0.2601,-0.2601,-0.2601,-0.2598,-0.2598,-0.2599,-0.2599,-0.2576,-0.2576,-0.2575,0,0,0,0,0,0,0,0,0,0,0,0,0,-0.2664,-0.2664,-0.2623,-0.2623,-0.2623,-0.2601,-0.2601,-0.2601,-0.2598,-0.2598,-0.2599,-0.2599,-0.2577,-0.2576,-0.2575,0,0,0,0,0,0,0,0,0,0,0,0,0,-0.2645,-0.2663,-0.2623,-0.2619,-0.2618,-0.2601,-0.2601,-0.2601,-0.2598,-0.2598,-0.2599,-0.2599,-0.2577,-0.2576,-0.2575,-0.2561,0,0,-0.2571,-0.257,0,0,0,0,0,0,0,0,-0.2646,-0.2643,-0.262,-0.2619,-0.2619,-0.2603,-0.2607,-0.2587,-0.2598,-0.2606,-0.2599,-0.2599,-0.2585,-0.2583,-0.2578,-0.256,-0.2559,-0.2571,-0.257,-0.257,-0.2569,0,0,0,0,0,0,0,-0.2647,-0.2644,-0.2615,-0.262,-0.2619,-0.2618,-0.2616,-0.2603,-0.2594,-0.2605,-0.2605,-0.2602,-0.2585,-0.2579,-0.2578,-0.2558,-0.2571,-0.257,-0.2569,-0.2569,-0.2528,-0.2527,0,0,0,0,0,0,-0.2649,-0.2645,-0.2615,-0.2614,-0.2633,-0.2617,-0.2615,-0.2608,-0.2594,-0.2592,-0.2602,-0.2602,-0.2581,-0.2579,-0.2577,-0.256,-0.257,-0.2568,-0.2568,-0.2528,-0.2528,-0.2527,0,0,0,0,0,0,-0.265,-0.2647,-0.2616,-0.263,-0.2626,-0.2616,-0.2608,-0.2607,-0.2602,-0.2592,-0.259,-0.2598,-0.2581,-0.2579,-0.2565,-0.2559,-0.2568,-0.2567,-0.2529,-0.2528,-0.2527,-0.2526,0,0,0,0,0,0,-0.2651,-0.2647,-0.2641,-0.2629,-0.2625,-0.2604,-0.2608,-0.2606,-0.26,-0.26,-0.2588,-0.2586,-0.2581,-0.2567,-0.2564,-0.2558,-0.2566,-0.2529,-0.2528,-0.2528,-0.2526,-0.2525,-0.2524,0,0,0,0,0,-0.2653,-0.2642,-0.2641,-0.2637,-0.2618,-0.2604,-0.2601,-0.2596,-0.2599,-0.2593,-0.2587,-0.2586,-0.256,-0.2565,-0.2562,-0.2555,-0.2529,-0.2529,-0.2528,-0.2526,-0.2525,-0.2524,0,0,0,0,0,0,-0.2653,-0.264,-0.2639,-0.2624,-0.2615,-0.2603,-0.2596,-0.2595,-0.2585,-0.2586,-0.258,-0.2577,-0.2564,-0.2558,-0.2564,-0.2541,-0.2545,-0.2544,-0.2545,-0.2544,-0.2543,-0.2545,-0.2565,0,0,0,0,0,-0.2651,-0.2641,-0.263,-0.2618,-0.2613,-0.2606,-0.2599,-0.2596,-0.2587,-0.2583,-0.2576,-0.2567,-0.2557,-0.255,-0.254,-0.2526,-0.2523,-0.2519,-0.2518,-0.2518,-0.2516,-0.2509,-0.2507,-0.2525,-0.2525,-0.2525,0,0,-0.2647,-0.2639,-0.2633,-0.2617,-0.261,-0.26,-0.2602,-0.2591,-0.2584,-0.2582,-0.2568,-0.2563,-0.2552,-0.2538,-0.2531,-0.2533,-0.2511,-0.2517,-0.2516,-0.2515,-0.2508,-0.2506,-0.2504,-0.2524,-0.2524,-0.2524,0,0,-0.2635,-0.2627,-0.2616,-0.2609,-0.2598,-0.2594,-0.2591,-0.258,-0.2576,-0.2563,-0.2561,-0.2552,-0.2535,-0.2528,-0.2522,-0.2508,-0.2507,-0.2505,-0.2499,-0.2492,-0.249,-0.2489,-0.2484,-0.2483,-0.2504,-0.2504,-0.2504,0,-0.2631,-0.2615,-0.2611,-0.26,-0.2593,-0.2591,-0.258,-0.2574,-0.256,-0.2556,-0.2558,-0.2536,-0.2529,-0.2514,-0.251,-0.2506,-0.2503,-0.2506,-0.2491,-0.249,-0.2488,-0.2484,-0.2482,-0.2503,-0.2503,-0.2503,-0.2503,0,-0.2612,-0.2601,-0.2593,-0.2581,-0.2573,-0.2562,-0.2556,-0.255,-0.2547,-0.2542,-0.2529,-0.2521,-0.2509,-0.2506,-0.2503,-0.249,-0.2491,-0.2492,-0.2496,-0.2487,-0.2482,-0.248,-0.2503,-0.2503,-0.2503,-0.2503,0,0,-0.2598,-0.2583,-0.2581,-0.2575,-0.2563,-0.2555,-0.2544,-0.2533,-0.2528,-0.2519,-0.251,-0.2496,-0.2497,-0.249,-0.2487,-0.2481,-0.2471,-0.2483,-0.2483,-0.2481,-0.2456,-0.2455,-0.2453,-0.247,-0.247,-0.247,-0.2457,0,-0.2584,-0.2565,-0.256,-0.2544,-0.2534,-0.2533,-0.2523,-0.2515,-0.2511,-0.2502,-0.2497,-0.2487,-0.2489,-0.2485,-0.2479,-0.2473,-0.2466,-0.2474,-0.2462,-0.2462,-0.2464,-0.245,-0.2449,-0.2437,-0.2455,-0.2454,-0.2454,0,-0.2565,-0.2556,-0.2538,-0.2529,-0.2525,-0.2516,-0.2506,-0.2498,-0.2489,-0.2486,-0.2479,-0.2477,-0.2467,-0.2471,-0.2457,-0.2463,-0.2458,-0.2454,-0.2454,-0.2452,-0.2457,-0.2448,-0.2433,-0.2431,-0.2451,-0.2452,-0.2452,0,-0.2557,-0.254,-0.2528,-0.2523,-0.2511,-0.2506,-0.2501,-0.2492,-0.2486,-0.2478,-0.2474,-0.2464,-0.2458,-0.2451,-0.2447,-0.245,-0.2433,-0.2437,-0.243,-0.243,-0.2426,-0.2426,-0.241,-0.2423,-0.2423,-0.2423,-0.2423,0,-0.2542,-0.2531,-0.2524,-0.2516,-0.2504,-0.25,-0.2488,-0.2484,-0.2476,-0.2468,-0.2466,-0.2458,-0.2453,-0.2445,-0.2441,-0.243,-0.2428,-0.2425,-0.2424,-0.2425,-0.2425,-0.2421,-0.2422,-0.2423,-0.2423,-0.2423,-0.2423,0,-0.253,-0.2525,-0.2511,-0.2501,-0.2499,-0.2491,-0.2483,-0.2475,-0.2471,-0.246,-0.2458,-0.2451,-0.2441,-0.2436,-0.2424,-0.2422,-0.2409,-0.2408,-0.2411,-0.2411,-0.2405,-0.2405,-0.2385,-0.2382,-0.2398,-0.2397,-0.2397,0,-0.2521,-0.2512,-0.2502,-0.2496,-0.2491,-0.2482,-0.2476,-0.2471,-0.2465,-0.2455,-0.2449,-0.2439,-0.2431,-0.2415,-0.241,-0.24,-0.24,-0.2393,-0.2398,-0.24,-0.24,-0.24,-0.2399,-0.2392,-0.2392,-0.2392,-0.2392,0,-0.2504,-0.2502,-0.2493,-0.2484,-0.2477,-0.2469,-0.2461,-0.2457,-0.2451,-0.2444,-0.2434,-0.2428,-0.2416,-0.2406,-0.2396,-0.2391,-0.2391,-0.239,-0.2388,-0.2389,-0.2391,-0.239,-0.2409,-0.2391,-0.2391,-0.2391,-0.2391,-0.2391,-0.2493,-0.2486,-0.2478,-0.2468,-0.2462,-0.2455,-0.2448,-0.2443,-0.2435,-0.2424,-0.2422,-0.2412,-0.2404,-0.2391,-0.2386,-0.2378,-0.238,-0.2377,-0.2376,-0.2375,-0.2375,-0.2393,-0.2377,-0.2377,-0.2377,-0.2377,-0.2377,0,-0.2477,-0.2472,-0.2463,-0.2453,-0.2445,-0.2446,-0.2437,-0.2431,-0.2422,-0.2415,-0.2407,-0.2396,-0.2386,-0.238,-0.2371,-0.2366,-0.2365,-0.2363,-0.2364,-0.2363,-0.2374,-0.2377,-0.2364,-0.2364,-0.2364,-0.2364,-0.2364,-0.2364,-0.2468,-0.2456,-0.2453,-0.2438,-0.2433,-0.2423,-0.2418,-0.2412,-0.2406,-0.2394,-0.2386,-0.2382,-0.2376,-0.2366,-0.2358,-0.2356,-0.2353,-0.2351,-0.235,-0.236,-0.2362,-0.2363,-0.2365,-0.235,-0.235,-0.2339,-0.2339,-0.2339]}]]